Location: Rostock
(54.0884°N, 12.1234°E)
Time: 11:31:04
(UTC+01:00)

ISS - Pass Details

Date: 07 January 2018
Orbit: 402 x 407 km, 51.6° (Epoch: 22 January)

Event Time Altitude Azimuth Distance (km) Brightness Sun altitude
Exits shadow 07:28:44 - 269° (W) 1,578 -1.4 -8.2°
Reaches altitude 10° 07:29:01 10° 267° (W) 1,470 -1.5 -8.2°
Maximum altitude 07:32:02 33° 201° (SSW) 704 -2.5 -7.8°
Drops below altitude 10° 07:35:02 10° 135° (SE) 1,468 0.5 -7.4°
Sets 07:37:13 0° 126° (SE) 2,327 2.4 -7.1°
